Flag for United Kingdom Weather past 2 weeks in Oldham, England, United Kingdom

Now
41 °F

Partly cloudy.


Feels Like: 32 °F
Forecast: 37 / 46 °F
Wind: 20 mph from Northwest

Location: Manchester Airport

Current Time: Apr 1, 2015 at 1:12:57 AM

Latest Report: Apr 1, 2015 at 12:20 AM


Visibility: N/A

Pressure: 30.04 "Hg

Humidity: 70%

Dew point: 32 °F

Location of OldhamLocation

Historic Weather in Oldham — Graph

°F

Oldham temperature yesterday

Maximum temperature yesterday: 52 °F (at 12:20 AM)
Minimum temperature yesterday: 39 °F (at 6:50 PM)
Average temperature yesterday: 44 °F

Past Weeks' High & Low Weather Summary

 TemperatureHumidityPressure
High55 °F (Mar 28, 11:50 AM)100% (Mar 18, 12:50 AM)30.60 "Hg (Mar 18, 12:50 AM)
Low27 °F (Mar 18, 6:20 AM)50% (Mar 25, 1:50 PM)29.21 "Hg (Mar 29, 10:50 AM)
Average42 °F80%30.00 "Hg
* Reported Mar 16 10:20 PM — Mar 31 11:50 PM, Oldham, Weather by CustomWeather, © 2015

Note: Actual official high and low records may vary slightly from our data, if they occured in-between our weather recording intervals... More about our weather records

Advertising

Oldham weather history for previous 24 hours

 ConditionsComfort  
Time TempWeatherWind HumidityBarometerVisibility
11:50 PM
Tue, Mar 31
41 °FPassing clouds.20 mph70%30.01 "HgN/A
11:20 PM41 °FPassing clouds.22 mph66%30.01 "HgN/A
10:50 PM41 °FPassing clouds.23 mph70%29.98 "HgN/A
10:20 PM41 °FScattered showers. Passing clouds.24 mph70%29.98 "HgN/A
9:50 PM41 °FScattered showers. Passing clouds.24 mph76%29.95 "HgN/A
9:20 PM39 °FRain showers. Passing clouds.16 mph81%29.95 "Hg6 mi
8:50 PM39 °FSprinkles. Passing clouds.13 mph81%29.95 "HgN/A
8:20 PM41 °FScattered showers. Scattered clouds.21 mph76%29.92 "HgN/A
7:50 PM41 °FSprinkles. Partly sunny.22 mph76%29.92 "HgN/A
7:20 PM39 °FSprinkles. Scattered clouds.20 mph87%29.92 "HgN/A
6:50 PM39 °FSprinkles. Scattered clouds.25 mph81%29.89 "HgN/A
6:20 PM43 °FScattered showers. Scattered clouds.23 mph66%29.86 "HgN/A
5:50 PM45 °FScattered clouds.25 mph61%29.86 "HgN/A
5:20 PM45 °FScattered showers. Scattered clouds.25 mph66%29.83 "HgN/A
4:50 PM45 °FSprinkles. Scattered clouds.26 mph71%29.83 "HgN/A
4:20 PM45 °FSprinkles. Partly sunny.25 mph61%29.83 "HgN/A
3:50 PM45 °FScattered clouds.33 mph66%29.80 "HgN/A
3:20 PM45 °FScattered clouds.32 mph76%29.80 "HgN/A
2:50 PM45 °FBroken clouds.28 mph71%29.77 "HgN/A
2:20 PM46 °FBroken clouds.32 mph62%29.77 "HgN/A
1:50 PM46 °FScattered clouds.33 mph62%29.74 "HgN/A
1:20 PM46 °FScattered clouds.28 mph71%29.74 "HgN/A
12:50 PM46 °FBroken clouds.31 mph66%29.74 "HgN/A
12:20 PM46 °FScattered clouds.31 mph71%29.71 "HgN/A
11:50 AM46 °FScattered clouds.30 mph71%29.71 "HgN/A
11:20 AM46 °FScattered clouds.31 mph71%29.68 "HgN/A
10:50 AM46 °FScattered clouds.32 mph71%29.68 "HgN/A
10:20 AM45 °FScattered clouds.28 mph76%29.68 "HgN/A
9:50 AM45 °FScattered clouds.26 mph76%29.65 "HgN/A
9:20 AM45 °FScattered clouds.28 mph76%29.65 "HgN/A
8:50 AM45 °FScattered clouds.22 mph76%29.62 "HgN/A
8:20 AM43 °FScattered clouds.24 mph81%29.59 "HgN/A
7:50 AM43 °FScattered showers. Partly sunny.21 mph87%29.56 "HgN/A
7:20 AM45 °FScattered showers. Partly cloudy.28 mph81%29.50 "HgN/A
6:50 AM43 °FLots of rain. Passing clouds.22 mph87%29.47 "HgN/A
6:20 AM45 °FPassing clouds.23 mph81%29.45 "HgN/A
5:50 AM45 °FPartly cloudy.24 mph87%29.42 "HgN/A
5:20 AM45 °FLight rain. Mostly cloudy.26 mph87%29.39 "Hg4 mi
4:50 AM46 °FLight rain. Partly cloudy.29 mph82%29.36 "Hg6 mi
4:20 AM46 °FLight rain. Mostly cloudy.36 mph82%29.33 "HgN/A
3:50 AM48 °FPassing clouds.36 mph76%29.30 "HgN/A
3:20 AM48 °FPartly cloudy.37 mph76%29.30 "HgN/A
2:50 AM48 °FMostly cloudy.33 mph76%29.30 "HgN/A
2:20 AM48 °FMostly cloudy.33 mph76%29.27 "HgN/A
1:50 AM48 °FPartly cloudy.39 mph82%29.27 "HgN/A
1:20 AM48 °FPartly cloudy.35 mph87%29.27 "HgN/A
Weather by CustomWeather, © 2015

See weather overviewHow to use our weather pages